[[{"header":{"parameterUnit":"m.s-1","parameterCategory":1,"la1":30.2991,"la2":30.254,"lo1":-89.0895,"lo2":-89.0444,"dy":0.0017,"dx":0.0017,"nx":28,"ny":28,"refTime":"2026-02-26T03:00:00:Z","depth":0,"parameterNumber":2,"parameterNumberName":"U-component_of_WINDS"},"data":[0,0,0,0,0,0,0,0,0,0,0,0,0,0,0,0,0,0,0,0,0,0,0,0,0,0,0,0,0,0,0,0,0,0,0,0,0,0,0,0,0,0,0,0,0,0,0,0,0,0,0,0,0,0,0,0,0,0,0.6587,0.6588,0,0.667,0.6671,0.6672,0.6669,0.6667,0.6666,0.6665,0.6755,0.6758,0.6762,0,0,0,0,0,0,0,0,0,0,0,0,0,0.6431,0.6434,0.6587,0.6588,0.6589,0.6669,0.6671,0.6672,0.6669,0.6667,0.6666,0.6665,0.6754,0.6758,0.6762,0,0,0,0,0,0,0,0,0,0,0,0,0,0.6505,0.6434,0.6586,0.6597,0.6599,0.6669,0.6671,0.6672,0.6669,0.6667,0.6666,0.6664,0.6753,0.6758,0.6763,0.683,0,0,0.6779,0.6781,0,0,0,0,0,0,0,0,0.65,0.651,0.6594,0.6596,0.6598,0.6657,0.6649,0.6725,0.667,0.6643,0.6665,0.6663,0.6724,0.6732,0.6751,0.6834,0.6838,0.6779,0.6782,0.6785,0.6786,0,0,0,0,0,0,0,0.6495,0.6507,0.662,0.6595,0.6598,0.6599,0.6608,0.6663,0.6692,0.6645,0.6645,0.6654,0.6725,0.6746,0.6753,0.6839,0.6779,0.6784,0.6787,0.6789,0.6983,0.6985,0,0,0,0,0,0,0.6487,0.6503,0.6617,0.6622,0.6544,0.6603,0.6613,0.664,0.6692,0.6698,0.6656,0.6654,0.6738,0.6747,0.6756,0.6839,0.6785,0.679,0.6793,0.6981,0.6984,0.6986,0,0,0,0,0,0,0.6484,0.6497,0.6614,0.6562,0.6577,0.6608,0.6638,0.6642,0.6664,0.67,0.6706,0.6672,0.6737,0.6749,0.6812,0.6842,0.6792,0.6797,0.6979,0.6982,0.6985,0.7004,0,0,0,0,0,0,0.6479,0.6496,0.6521,0.6563,0.658,0.6666,0.664,0.6645,0.6672,0.667,0.6716,0.6722,0.6737,0.6804,0.6817,0.6848,0.6801,0.6976,0.698,0.6984,0.7001,0.7007,0.7013,0,0,0,0,0,0.6474,0.6524,0.6522,0.6536,0.6611,0.6668,0.6678,0.6691,0.6674,0.67,0.6724,0.6721,0.6837,0.681,0.6825,0.6858,0.6974,0.6979,0.6983,0.6998,0.7006,0.7013,0,0,0,0,0,0,0.6486,0.653,0.6528,0.6593,0.6626,0.6667,0.67,0.6699,0.674,0.6737,0.6754,0.6765,0.6827,0.6849,0.6819,0.6927,0.6904,0.6911,0.691,0.6918,0.6924,0.6917,0.6805,0,0,0,0,0,0.6496,0.6537,0.6573,0.6627,0.6644,0.6669,0.6694,0.6702,0.6738,0.6753,0.6781,0.6817,0.6862,0.6891,0.6934,0.7004,0.7015,0.7035,0.7041,0.7045,0.7052,0.7091,0.7101,0.7001,0.7001,0.7001,0,0,0.6518,0.6546,0.6571,0.663,0.6657,0.67,0.6681,0.6728,0.676,0.676,0.6821,0.6843,0.6885,0.6951,0.6982,0.6972,0.7082,0.7051,0.7055,0.7059,0.7097,0.7107,0.7115,0.7004,0.7003,0.7003,0,0,0.6579,0.6604,0.6652,0.6679,0.672,0.6736,0.6748,0.6789,0.6803,0.6863,0.6864,0.6905,0.6981,0.7011,0.7036,0.711,0.7109,0.7124,0.7155,0.7194,0.7202,0.7209,0.7235,0.7245,0.713,0.713,0.713,0,0.6601,0.6664,0.6677,0.6724,0.675,0.6751,0.68,0.6827,0.688,0.6899,0.6886,0.6982,0.7011,0.7085,0.7102,0.7123,0.7138,0.7118,0.7199,0.7206,0.7213,0.7239,0.7249,0.7132,0.7132,0.7131,0.7131,0,0.669,0.6734,0.6768,0.6818,0.6848,0.6896,0.6918,0.6947,0.6953,0.6971,0.7034,0.7068,0.7118,0.7136,0.7143,0.7212,0.7204,0.7195,0.7172,0.7224,0.7248,0.7258,0.7134,0.7133,0.7133,0.7133,0,0,0.676,0.6816,0.6829,0.6852,0.6897,0.6932,0.6981,0.7029,0.7054,0.7092,0.7134,0.7198,0.719,0.7219,0.7229,0.7263,0.7319,0.725,0.7251,0.7262,0.7398,0.7405,0.7416,0.7319,0.7321,0.7323,0.7395,0,0.6826,0.691,0.6924,0.6999,0.7041,0.7043,0.7085,0.7119,0.7138,0.7177,0.7199,0.7244,0.723,0.7248,0.7281,0.7305,0.7347,0.73,0.736,0.7362,0.7349,0.7428,0.7435,0.7502,0.7404,0.7406,0.7407,0,0.6914,0.6952,0.7031,0.7071,0.7089,0.7127,0.7172,0.7209,0.7248,0.7259,0.7292,0.7298,0.735,0.7325,0.7398,0.7366,0.7392,0.7408,0.7411,0.7417,0.7387,0.7437,0.7523,0.7533,0.7422,0.7421,0.742,0,0.6958,0.7029,0.7085,0.7105,0.7153,0.718,0.7201,0.7238,0.7266,0.7306,0.7325,0.7371,0.7397,0.7433,0.7453,0.7432,0.7525,0.7501,0.7537,0.7537,0.7556,0.7555,0.7648,0.7573,0.7572,0.7572,0.7572,0,0.703,0.7078,0.7105,0.714,0.7195,0.721,0.7265,0.7286,0.7319,0.7359,0.7364,0.7402,0.7425,0.7467,0.7483,0.7541,0.7553,0.7565,0.7568,0.7564,0.7563,0.7581,0.7577,0.7575,0.7574,0.7574,0.7573,0,0.7087,0.7107,0.7169,0.721,0.7221,0.726,0.7295,0.733,0.7349,0.74,0.7413,0.7443,0.7492,0.7515,0.7577,0.7587,0.7654,0.7655,0.7641,0.7642,0.7676,0.7673,0.7784,0.78,0.7714,0.7715,0.7716,0,0.7131,0.7168,0.7213,0.7239,0.7261,0.7304,0.7333,0.735,0.738,0.7427,0.7457,0.7506,0.7546,0.7626,0.7654,0.7702,0.7704,0.774,0.7711,0.7706,0.7705,0.7702,0.7706,0.7745,0.7745,0.7746,0.7747,0,0.7208,0.7217,0.7256,0.7301,0.7334,0.737,0.7405,0.7427,0.7451,0.7484,0.7534,0.7565,0.7628,0.7677,0.7727,0.7751,0.7754,0.7755,0.7766,0.7762,0.7753,0.7759,0.7655,0.7753,0.7752,0.7752,0.7751,0.7751,0.7261,0.7294,0.733,0.7375,0.7403,0.7436,0.7471,0.7494,0.7535,0.7586,0.7595,0.7649,0.7688,0.7754,0.778,0.7823,0.7815,0.7831,0.7835,0.7838,0.784,0.7746,0.7833,0.7832,0.7832,0.7832,0.7832,0,0.7338,0.7361,0.7402,0.7451,0.7487,0.7485,0.7524,0.7554,0.7601,0.7636,0.7676,0.7734,0.7782,0.7814,0.7863,0.7892,0.7894,0.7904,0.7902,0.7908,0.7845,0.783,0.7901,0.7901,0.7901,0.7901,0.7901,0.7901,0.7382,0.7438,0.7451,0.7522,0.7546,0.7597,0.762,0.7651,0.7679,0.7743,0.7783,0.7803,0.7838,0.789,0.7934,0.7943,0.7961,0.7971,0.798,0.792,0.7912,0.7906,0.7892,0.7975,0.7975,0.8039,0.804,0.804]},{"header":{"parameterUnit":"m.s-1","parameterCategory":1,"la1":30.2991,"la2":30.254,"lo1":-89.0895,"lo2":-89.0444,"dy":0.0017,"dx":0.0017,"nx":28,"ny":28,"refTime":"2026-02-26T03:00:00:Z","depth":0,"parameterNumber":3,"parameterNumberName":"V-component_of_WINDS"},"data":[0,0,0,0,0,0,0,0,0,0,0,0,0,0,0,0,0,0,0,0,0,0,0,0,0,0,0,0,0,0,0,0,0,0,0,0,0,0,0,0,0,0,0,0,0,0,0,0,0,0,0,0,0,0,0,0,0,0,1.1156,1.1156,0,1.1216,1.1216,1.1217,1.1218,1.1218,1.1217,1.1216,1.1274,1.1276,1.1279,0,0,0,0,0,0,0,0,0,0,0,0,0,1.1039,1.1041,1.1156,1.1156,1.1157,1.1216,1.1216,1.1217,1.1218,1.1218,1.1217,1.1216,1.1274,1.1276,1.1279,0,0,0,0,0,0,0,0,0,0,0,0,0,1.1093,1.1042,1.1156,1.1165,1.1166,1.1215,1.1216,1.1217,1.1219,1.1217,1.1216,1.1215,1.1273,1.1276,1.1279,1.1322,0,0,1.129,1.1291,0,0,0,0,0,0,0,0,1.109,1.1097,1.1163,1.1164,1.1166,1.1209,1.1197,1.1252,1.1219,1.1199,1.1216,1.1215,1.1253,1.1258,1.1272,1.1325,1.1327,1.129,1.1292,1.1293,1.1294,0,0,0,0,0,0,0,1.1086,1.1095,1.1179,1.1164,1.1166,1.1165,1.1171,1.1207,1.1231,1.12,1.1201,1.1208,1.1254,1.1268,1.1273,1.1328,1.129,1.1293,1.1295,1.1296,1.1419,1.142,0,0,0,0,0,0,1.1081,1.1092,1.1177,1.1181,1.1125,1.1168,1.1175,1.1196,1.1231,1.1235,1.1209,1.1208,1.1263,1.1269,1.1275,1.1327,1.1293,1.1296,1.1298,1.1418,1.1419,1.1421,0,0,0,0,0,0,1.1079,1.1089,1.1175,1.1137,1.1148,1.1171,1.1194,1.1198,1.1212,1.1237,1.1241,1.1219,1.1262,1.127,1.1311,1.1329,1.1298,1.1301,1.1416,1.1418,1.142,1.1433,0,0,0,0,0,0,1.1075,1.1088,1.1105,1.1137,1.115,1.1211,1.1196,1.12,1.1219,1.1218,1.1248,1.1252,1.1262,1.1306,1.1314,1.1334,1.1304,1.1415,1.1417,1.1419,1.1431,1.1435,1.1438,0,0,0,0,0,1.1071,1.1106,1.1106,1.1116,1.1172,1.1212,1.1219,1.1231,1.122,1.1237,1.1253,1.1251,1.1326,1.131,1.1319,1.134,1.1414,1.1417,1.1419,1.1429,1.1434,1.1438,0,0,0,0,0,0,1.1074,1.111,1.1111,1.1157,1.1182,1.1212,1.1234,1.1235,1.1262,1.126,1.1273,1.1279,1.132,1.1334,1.1315,1.1383,1.1368,1.1373,1.1373,1.1378,1.1381,1.1377,1.1306,0,0,0,0,0,1.1081,1.1111,1.114,1.1178,1.119,1.121,1.1228,1.1235,1.126,1.127,1.1289,1.1313,1.1341,1.136,1.1388,1.1432,1.1439,1.1451,1.1455,1.1458,1.1462,1.1487,1.1492,1.143,1.143,1.143,0,0,1.1093,1.1117,1.1135,1.1179,1.1199,1.1229,1.1219,1.1251,1.1274,1.1275,1.1314,1.1329,1.1356,1.1399,1.1418,1.1412,1.1481,1.1462,1.1464,1.1467,1.149,1.1496,1.1501,1.1432,1.1432,1.1431,0,0,1.1133,1.1154,1.1188,1.1208,1.1238,1.1251,1.1259,1.129,1.13,1.134,1.1341,1.1367,1.1417,1.1436,1.1452,1.1499,1.1498,1.1507,1.1527,1.1551,1.1556,1.156,1.1576,1.1582,1.1511,1.1511,1.1511,0,1.1145,1.1192,1.1204,1.1238,1.1257,1.126,1.1294,1.1312,1.135,1.1363,1.1355,1.1417,1.1435,1.1482,1.1494,1.1507,1.1516,1.1504,1.1554,1.1559,1.1563,1.1579,1.1585,1.1512,1.1512,1.1512,1.1512,0,1.1205,1.1237,1.1261,1.1299,1.132,1.1353,1.137,1.139,1.1395,1.1408,1.1449,1.1471,1.1503,1.1515,1.1519,1.1562,1.1557,1.1552,1.1537,1.157,1.1585,1.1591,1.1513,1.1513,1.1513,1.1513,0,0,1.1248,1.1293,1.1301,1.1318,1.1352,1.1377,1.1409,1.1442,1.1459,1.1485,1.1512,1.1554,1.1549,1.1567,1.1574,1.1594,1.163,1.1586,1.1587,1.1593,1.1678,1.1682,1.1689,1.1629,1.163,1.1631,1.1676,0,1.1291,1.1351,1.1364,1.1415,1.1445,1.1449,1.1477,1.15,1.1513,1.154,1.1553,1.1583,1.1574,1.1585,1.1606,1.1621,1.1647,1.1618,1.1654,1.1655,1.1648,1.1697,1.1702,1.1743,1.1682,1.1683,1.1683,0,1.1349,1.1378,1.1433,1.1463,1.1476,1.1502,1.1533,1.1558,1.1584,1.1592,1.1612,1.1617,1.165,1.1634,1.1679,1.1659,1.1674,1.1684,1.1686,1.169,1.1672,1.1703,1.1756,1.1763,1.1693,1.1692,1.1691,0,1.1375,1.1427,1.1467,1.1481,1.1517,1.1535,1.1551,1.1576,1.1595,1.1621,1.1633,1.1663,1.1679,1.1701,1.1713,1.17,1.1757,1.1742,1.1764,1.1764,1.1776,1.1776,1.1834,1.1786,1.1786,1.1786,1.1786,0,1.1422,1.1456,1.1479,1.1504,1.1541,1.1554,1.159,1.1605,1.1628,1.1654,1.1658,1.1683,1.1697,1.1723,1.1732,1.1768,1.1775,1.1782,1.1784,1.1782,1.1781,1.1792,1.1789,1.1787,1.1787,1.1787,1.1786,0,1.1458,1.1475,1.1519,1.155,1.1558,1.1584,1.161,1.1633,1.1646,1.168,1.1688,1.1708,1.1739,1.1753,1.1791,1.1797,1.1838,1.1838,1.183,1.1831,1.1852,1.185,1.1919,1.1929,1.1875,1.1875,1.1876,0,1.1487,1.1513,1.1547,1.1566,1.1582,1.1612,1.1632,1.1646,1.1666,1.1697,1.1716,1.1748,1.1774,1.1823,1.184,1.1869,1.1869,1.1892,1.1873,1.187,1.187,1.1868,1.1871,1.1895,1.1895,1.1896,1.1896,0,1.1537,1.1544,1.1573,1.1605,1.1629,1.1654,1.1679,1.1694,1.1711,1.1733,1.1766,1.1786,1.1825,1.1856,1.1886,1.19,1.1901,1.1902,1.1908,1.1907,1.1901,1.1904,1.1839,1.19,1.19,1.19,1.1899,1.1899,1.157,1.1594,1.1621,1.1653,1.1674,1.1697,1.172,1.1737,1.1765,1.1799,1.1804,1.1839,1.1863,1.1904,1.1919,1.1946,1.194,1.195,1.1952,1.1954,1.1956,1.1897,1.1951,1.1951,1.1951,1.1951,1.1951,0,1.162,1.1638,1.1668,1.1703,1.1728,1.1728,1.1755,1.1776,1.1807,1.183,1.1856,1.1893,1.1923,1.1942,1.1972,1.1989,1.199,1.1997,1.1996,1.1999,1.1959,1.195,1.1995,1.1995,1.1995,1.1995,1.1995,1.1995,1.1649,1.1689,1.1699,1.1749,1.1766,1.1802,1.1817,1.1838,1.1857,1.1899,1.1924,1.1937,1.1959,1.199,1.2017,1.2022,1.2033,1.2039,1.2044,1.2006,1.2002,1.1997,1.1989,1.2042,1.2042,1.2082,1.2082,1.2082]}]]